LTQ weather

Le Touquet-Côte d'Opale Airport
Le Touquet-Paris-Plage, Hauts-de-France, France

Public forecast

Using degrees Celsius for public forecast. Weather courtesy of forecast.io.

Current aviation weather report (METAR) for Le Touquet-Côte d'Opale Airport

Retrieved 2020/05/27 05:30 UTC (0 seconds ago):

LFAT 270530Z AUTO 00000KT CAVOK 15/08 Q1035

Aviation forecast (TAF) for Le Touquet-Côte d'Opale Airport

Forecast is more than 12 hours old.

Retrieved 2018/07/14 09:21 UTC (2 years ago):

TAF TAF LFAT 140800Z 1409/1421 09004KT 8000 NSC BECMG 1409/1411 30010KT